User: anonymous   Login
Location: Nag� el Ma?a??a
(24.0667°N, 32.8833°E)
Time: 08:36:41
(UTC+00:00)
Language:

SL-16 R/B - Orbit

View from above orbital plane
View from above orbital plane
View from above satellite
View from above satellite

Ground track
Ground track

The orbit data is extracted from the following two-line orbital elements,

1 28353U 04021B   21340.89920893 -.00000296  00000-0 -13021-3 0  9995
2 28353  71.0012 252.1345 0007472 249.5149 110.5172 14.14252917903128
Epoch (UTC): 06 December 2021 21:34:51
Eccentricity: 0.0007472
inclination: 71.0012°
perigee height: 839 km
apogee height: 850 km
right ascension of ascending node: 252.1345°
argument of perigee: 249.5149°
revolutions per day: 14.14252917
mean anomaly at epoch: 110.5172°
orbit number at epoch: 90312

The dashed part of the orbit path shows where the satellite is in the earth's shadow,  

DLR